Погода в Санту-Анжелу

Бразилия     28°18′09″S   54°15′34″W
темп.,
°C
ветер,
м/с
пор.,
м/с
влажн.,
%
обл.,
%
осадки,
мм/ч
давл.,
гПа
погр.,
м
9 декабря, чт
чт900:00+18вюв511630 0.0 1016350
03:00+15вюв410750 0.0 1015243
06:00+14вюв38840 0.0 1016196
09:00+23в33500 0.0 1016575
12:00+29вюв21300 0.0 10141589
15:00+31юв33230 0.0 10112124
18:00+30юв46290 0.0 1009739
21:00+23юв613420 0.0 1011397
10 декабря, пт
пт1000:00+19вюв613590 0.0 1012419
03:00+16вюв411740 0.0 1011289
06:00+15вюв49824 0.0 1012223
09:00+24в33513 0.0 1012464
12:00+32ююв11292 0.0 10091643
15:00+33ю34212 0.0 10062669
18:00+33ююв23240 0.0 1004479
21:00+24юв223896 0.0 100517
11 декабря, сб
сб1100:00+21вюв5114898 0.0 1006293
03:00+19вюв495767 0.0 1005229
06:00+18в3762100 0.0 1006155
09:00+23вюв334998 0.0 1007323
12:00+27зюз1241100 0.0 1007479
15:00+27ююз3644100 0.0 1005398
18:00+25з1257100 0.1 100416
21:00+24юв2455100 0.1 100577
12 декабря, вс
вс1200:00+24ю1149100 0.1 100518
03:00+23в3557100 0.1 100492
06:00+21в4770100 0.1 1005279
09:00+20ссв3683100 0.8 1008236
12:00+30с44408 0.0 10061905
15:00+33св343374 0.0 10032650
18:00+30с354265 0.0 1003342
21:00+24св33550 0.0 100543
13 декабря, пн
пн1300:00+23всв22585 0.0 100639
03:00+23св345711 0.0 100592
06:00+21всв346218 0.0 100775
09:00+29ссв4542100 0.0 1008622
12:00+32с4538100 0.0 10071322
15:00+35св2330100 0.0 10042328
18:00+29ююв1149100 0.3 100317
21:00+22юз61286100 2.9 1008511